[[{"header":{"parameterUnit":"m.s-1","parameterCategory":1,"la1":30.2991,"la2":30.254,"lo1":-89.0895,"lo2":-89.0444,"dy":0.0017,"dx":0.0017,"nx":28,"ny":28,"refTime":"2024-07-10T09:00:00:Z","depth":0,"parameterNumber":2,"parameterNumberName":"U-component_of_WINDS"},"data":[0,0,0,0,0,0,0,0,0,0,0,0,0,0,0,0,0,0,0,0,0,0,0,0,0,0,0,0,0,0,0,0,0,0,0,0,0,0,0,0,0,0,0,0,0,0,0,0,0,0,0,0,0,0,0,0,0,0,3.7042,3.7043,0,3.7083,3.7083,3.7084,3.6985,3.6982,3.6979,3.6976,3.7021,3.7025,3.7029,0,0,0,0,0,0,0,0,0,0,0,0,0,3.6881,3.6885,3.7042,3.7043,3.7043,3.7083,3.7083,3.7084,3.6986,3.6982,3.6978,3.6974,3.7019,3.7024,3.7029,0,0,0,0,0,0,0,0,0,0,0,0,0,3.694,3.6886,3.7042,3.6999,3.6996,3.7083,3.7083,3.7084,3.6986,3.6982,3.6977,3.6973,3.7018,3.7024,3.703,3.7162,0,0,3.7049,3.7051,0,0,0,0,0,0,0,0,3.6936,3.6946,3.7005,3.7002,3.6998,3.7024,3.7043,3.711,3.6988,3.699,3.6976,3.697,3.7026,3.7031,3.7049,3.7164,3.7166,3.7049,3.7053,3.7056,3.7057,0,0,0,0,0,0,0,3.6933,3.6943,3.7058,3.7006,3.7002,3.6978,3.6981,3.7055,3.7034,3.6989,3.6982,3.6988,3.7023,3.7043,3.7049,3.7167,3.7049,3.7055,3.7058,3.7061,3.7388,3.7393,0,0,0,0,0,0,3.6934,3.6941,3.7057,3.706,3.6955,3.6985,3.6988,3.7021,3.7033,3.703,3.6992,3.6983,3.7035,3.7042,3.7051,3.7202,3.7056,3.7061,3.7065,3.7383,3.7389,3.7395,0,0,0,0,0,0,3.6931,3.6945,3.7056,3.6998,3.701,3.6992,3.703,3.7024,3.7044,3.7035,3.7031,3.7017,3.7032,3.7042,3.7134,3.7203,3.7064,3.707,3.7377,3.7385,3.7392,3.751,0,0,0,0,0,0,3.6926,3.6945,3.6994,3.7,3.7014,3.7138,3.7034,3.7028,3.7054,3.7043,3.7057,3.7054,3.7029,3.7125,3.714,3.7209,3.7075,3.7371,3.7381,3.739,3.75,3.752,3.7538,0,0,0,0,0,3.6921,3.7028,3.6997,3.7012,3.7076,3.7142,3.715,3.7117,3.706,3.711,3.7104,3.7054,3.7194,3.7135,3.7151,3.7223,3.7366,3.7378,3.7389,3.7491,3.7516,3.7538,0,0,0,0,0,0,3.7032,3.7028,3.6994,3.7106,3.7125,3.7125,3.7187,3.7146,3.7183,3.7171,3.713,3.7134,3.7233,3.7238,3.7173,3.735,3.727,3.7285,3.7342,3.7366,3.7385,3.7381,3.708,0,0,0,0,0,3.707,3.7124,3.7117,3.7216,3.7227,3.7206,3.7234,3.7206,3.7225,3.7233,3.7234,3.7255,3.7302,3.7335,3.738,3.7501,3.7501,3.7558,3.7577,3.7593,3.7605,3.7666,3.769,3.7431,3.7431,3.7431,0,0,3.7148,3.7152,3.7189,3.7238,3.725,3.7306,3.7213,3.7278,3.7318,3.7243,3.7328,3.733,3.7351,3.7457,3.7504,3.7463,3.7677,3.7607,3.762,3.7624,3.768,3.7705,3.7727,3.7439,3.7438,3.7436,0,0,3.7318,3.7328,3.7409,3.7422,3.744,3.7424,3.7444,3.7451,3.7448,3.7533,3.7476,3.7525,3.761,3.7625,3.7645,3.7818,3.7773,3.7834,3.7934,3.7994,3.8014,3.8032,3.809,3.8112,3.7848,3.7848,3.7848,0,3.7412,3.7494,3.7456,3.7523,3.7545,3.7479,3.756,3.7575,3.7608,3.7625,3.7579,3.7681,3.7691,3.7798,3.784,3.7859,3.7879,3.7831,3.8014,3.8032,3.8048,3.8103,3.8125,3.7855,3.7854,3.7853,3.7853,0,3.7607,3.7665,3.7729,3.7759,3.7789,3.7863,3.7837,3.7872,3.7842,3.7832,3.7918,3.7927,3.7969,3.7993,3.7967,3.8096,3.807,3.8021,3.7939,3.808,3.8131,3.8152,3.7865,3.7862,3.786,3.7859,0,0,3.7848,3.7855,3.7878,3.7889,3.7904,3.7947,3.8018,3.8058,3.8088,3.8113,3.8169,3.8242,3.8194,3.8216,3.8191,3.8244,3.8376,3.8187,3.8187,3.8219,3.8515,3.855,3.8575,3.8347,3.8351,3.8354,3.8512,0,3.8012,3.8131,3.8099,3.8218,3.8269,3.8205,3.8266,3.8282,3.8274,3.8316,3.8308,3.8358,3.8294,3.8306,3.8356,3.8349,3.8435,3.8338,3.8398,3.84,3.8391,3.8603,3.864,3.8789,3.8533,3.8536,3.8538,0,3.822,3.8249,3.8373,3.8375,3.8395,3.8451,3.8483,3.8525,3.8541,3.8531,3.8555,3.8517,3.8586,3.8507,3.86,3.8535,3.8558,3.8558,3.8563,3.8565,3.8476,3.8607,3.8836,3.8857,3.857,3.8568,3.8565,0,3.8378,3.845,3.8531,3.8543,3.855,3.8589,3.8594,3.8605,3.863,3.8659,3.8675,3.8713,3.8733,3.8764,3.8737,3.8682,3.8834,3.8753,3.8826,3.8827,3.8858,3.8856,3.9091,3.888,3.8879,3.8879,3.8878,0,3.8563,3.864,3.8601,3.8652,3.8735,3.8698,3.8782,3.878,3.879,3.8838,3.8787,3.8834,3.8798,3.8841,3.8822,3.89,3.8911,3.8904,3.8897,3.8906,3.8907,3.8919,3.8906,3.8885,3.8883,3.8882,3.8881,0,3.8753,3.873,3.8815,3.8813,3.8814,3.8876,3.8874,3.892,3.8908,3.8969,3.8982,3.8963,3.9011,3.8989,3.904,3.9027,3.9126,3.9108,3.912,3.9114,3.9187,3.9179,3.9435,3.9465,3.9238,3.924,3.9242,0,3.8871,3.8928,3.8931,3.8959,3.8966,3.9012,3.9036,3.9002,3.903,3.905,3.9094,3.9137,3.9169,3.9249,3.9241,3.9279,3.9259,3.9346,3.9264,3.927,3.9255,3.9251,3.9255,3.9361,3.9364,3.9366,3.9368,0,3.9081,3.9066,3.9103,3.9135,3.9165,3.919,3.921,3.9236,3.9201,3.9235,3.9282,3.9307,3.9358,3.9401,3.9434,3.9439,3.9397,3.9394,3.9412,3.942,3.9424,3.9419,3.9161,3.9387,3.9385,3.9384,3.9383,3.9382,3.9235,3.9282,3.929,3.9332,3.9343,3.9362,3.9404,3.9396,3.9435,3.9471,3.9449,3.9504,3.9517,3.9556,3.9567,3.9609,3.9574,3.9602,3.9608,3.9615,3.9623,3.942,3.9616,3.9615,3.9614,3.9614,3.9613,0,3.9439,3.9441,3.948,3.9508,3.9541,3.9498,3.9517,3.9547,3.9596,3.961,3.9642,3.9695,3.9736,3.9731,3.9768,3.9802,3.9784,3.9813,3.9808,3.981,3.9653,3.9632,3.9827,3.9827,3.9827,3.9827,3.9827,3.9827,3.9549,3.9624,3.961,3.9689,3.9691,3.9742,3.9757,3.9774,3.9785,3.9846,3.9878,3.9874,3.988,3.9916,3.9952,3.9949,3.9963,3.9999,3.9989,3.9842,3.9821,3.9801,3.978,4.0003,4.0004,4.0141,4.0142,4.0143]},{"header":{"parameterUnit":"m.s-1","parameterCategory":1,"la1":30.2991,"la2":30.254,"lo1":-89.0895,"lo2":-89.0444,"dy":0.0017,"dx":0.0017,"nx":28,"ny":28,"refTime":"2024-07-10T09:00:00:Z","depth":0,"parameterNumber":3,"parameterNumberName":"V-component_of_WINDS"},"data":[0,0,0,0,0,0,0,0,0,0,0,0,0,0,0,0,0,0,0,0,0,0,0,0,0,0,0,0,0,0,0,0,0,0,0,0,0,0,0,0,0,0,0,0,0,0,0,0,0,0,0,0,0,0,0,0,0,0,2.9014,2.9015,0,2.9087,2.9088,2.9088,2.9027,2.9024,2.9021,2.9019,2.9092,2.9096,2.91,0,0,0,0,0,0,0,0,0,0,0,0,0,2.8819,2.8823,2.9014,2.9015,2.9016,2.9087,2.9088,2.9089,2.9027,2.9024,2.9021,2.9018,2.909,2.9096,2.9101,0,0,0,0,0,0,0,0,0,0,0,0,0,2.8899,2.8824,2.9014,2.8994,2.8993,2.9087,2.9088,2.9089,2.9028,2.9024,2.902,2.9016,2.9089,2.9095,2.9101,2.9218,0,0,2.9121,2.9124,0,0,0,0,0,0,0,0,2.8894,2.8906,2.8996,2.8995,2.8994,2.9044,2.9045,2.9132,2.9029,2.9014,2.9019,2.9015,2.9079,2.9086,2.9108,2.9222,2.9225,2.9122,2.9126,2.9129,2.913,0,0,0,0,0,0,0,2.8889,2.8902,2.9043,2.8997,2.8996,2.898,2.8987,2.9062,2.9067,2.9015,2.9011,2.9021,2.9078,2.9102,2.9109,2.9226,2.9122,2.9127,2.9131,2.9134,2.9436,2.944,0,0,0,0,0,0,2.8886,2.8898,2.9041,2.9045,2.8934,2.8987,2.8995,2.9032,2.9066,2.9068,2.9024,2.9017,2.9093,2.9102,2.9112,2.9249,2.9129,2.9135,2.9138,2.9432,2.9437,2.9441,0,0,0,0,0,0,2.8882,2.8899,2.9038,2.8971,2.8987,2.8994,2.9036,2.9035,2.9059,2.9073,2.9073,2.9048,2.909,2.9102,2.9192,2.9251,2.9138,2.9143,2.9427,2.9433,2.9439,2.9526,0,0,0,0,0,0,2.8876,2.8898,2.8944,2.8972,2.8991,2.9118,2.904,2.9039,2.9071,2.9063,2.9095,2.9097,2.9088,2.9182,2.9198,2.9257,2.9149,2.9422,2.943,2.9437,2.9518,2.9534,2.9548,0,0,0,0,0,2.887,2.8966,2.8946,2.8964,2.9048,2.9122,2.9132,2.9121,2.9076,2.9121,2.9129,2.9096,2.9241,2.9192,2.9209,2.9272,2.9418,2.9428,2.9437,2.9511,2.9531,2.9548,0,0,0,0,0,0,2.8944,2.8969,2.8948,2.9056,2.9087,2.9111,2.9168,2.9143,2.9187,2.9178,2.9161,2.9168,2.9262,2.9276,2.922,2.9385,2.9322,2.9335,2.9373,2.9392,2.9407,2.9402,2.9154,0,0,0,0,0,2.8973,2.9032,2.905,2.9144,2.916,2.9162,2.9193,2.9181,2.9213,2.9225,2.924,2.9271,2.9323,2.9358,2.9407,2.9519,2.9524,2.957,2.9585,2.9598,2.9609,2.9667,2.9687,2.9472,2.9472,2.9472,0,0,2.9034,2.9055,2.9093,2.9159,2.9182,2.9241,2.9173,2.924,2.9283,2.9235,2.932,2.9332,2.9365,2.9465,2.951,2.9479,2.9669,2.9609,2.9619,2.9624,2.9678,2.9699,2.9717,2.9478,2.9477,2.9476,0,0,2.9175,2.9198,2.9277,2.93,2.9335,2.9335,2.9354,2.9381,2.9387,2.9472,2.9436,2.9487,2.9578,2.9602,2.9627,2.9773,2.9744,2.979,2.987,2.9926,2.9943,2.9958,3.0008,3.0027,2.9801,2.9801,2.9802,0,2.9246,2.9336,2.9321,2.939,2.9419,2.9377,2.9456,2.9479,2.9529,2.9549,2.9513,2.9625,2.9645,2.9749,2.9784,2.9806,2.9825,2.9787,2.9942,2.9956,2.997,3.0018,3.0038,2.9807,2.9806,2.9806,2.9805,0,2.942,2.9483,2.9542,2.959,2.9626,2.97,2.9694,2.9732,2.9716,2.9718,2.9804,2.9825,2.9877,2.99,2.9886,3.0002,2.9981,2.9944,2.9881,2.9996,3.0041,3.006,2.9814,2.9812,2.9811,2.981,0,0,2.9613,2.965,2.9672,2.9692,2.9726,2.9773,2.9843,2.9893,2.9925,2.9959,3.0017,3.0093,3.0058,3.0086,3.0073,3.0122,3.0235,3.0079,3.0079,3.0106,3.0361,3.0389,3.0411,3.0215,3.0218,3.0221,3.0358,0,2.9754,2.9878,2.9865,2.9981,3.0037,2.9997,3.0057,3.0084,3.0088,3.0134,3.0138,3.0192,3.0143,3.0158,3.0205,3.0211,3.0286,3.0201,3.0267,3.0269,3.026,3.0434,3.0465,3.0593,3.0376,3.0379,3.0381,0,2.9937,2.9977,3.0099,3.0122,3.0145,3.02,3.0243,3.0289,3.0317,3.0316,3.0345,3.0323,3.0391,3.0326,3.0419,3.0362,3.0388,3.0394,3.0399,3.0405,3.0332,3.0444,3.0634,3.0653,3.0409,3.0406,3.0404,0,3.0063,3.0148,3.0231,3.025,3.0279,3.0318,3.0331,3.0356,3.0386,3.0423,3.0442,3.0487,3.0512,3.0546,3.0536,3.049,3.063,3.0565,3.063,3.063,3.0662,3.066,3.0858,3.0679,3.0679,3.0679,3.0678,0,3.0223,3.0299,3.0288,3.0339,3.0422,3.0405,3.0488,3.0496,3.0517,3.0568,3.0535,3.0584,3.0567,3.0614,3.0606,3.0683,3.0695,3.0694,3.0691,3.0698,3.0697,3.0714,3.0705,3.0684,3.0683,3.0682,3.0681,0,3.0379,3.0375,3.0463,3.0482,3.0488,3.0549,3.0564,3.0612,3.0611,3.0676,3.069,3.069,3.0743,3.0736,3.0795,3.0789,3.0885,3.0871,3.0876,3.0873,3.0938,3.0932,3.1154,3.1181,3.0985,3.0987,3.0988,0,3.0481,3.0538,3.0563,3.0595,3.0611,3.0663,3.0693,3.0677,3.071,3.0744,3.0787,3.0836,3.0876,3.0962,3.0966,3.101,3.0997,3.1072,3.1004,3.1007,3.0997,3.0994,3.0998,3.1085,3.1088,3.1089,3.1091,0,3.0661,3.0656,3.0701,3.0745,3.0781,3.0815,3.0845,3.0873,3.086,3.0897,3.0951,3.0981,3.104,3.109,3.1131,3.1143,3.1115,3.1112,3.1129,3.1136,3.1136,3.1136,3.0912,3.1107,3.1106,3.1104,3.1104,3.1103,3.0793,3.0841,3.0865,3.0916,3.0936,3.0965,3.101,3.1014,3.1059,3.1106,3.1094,3.1154,3.1177,3.1229,3.1246,3.1292,3.1264,3.1289,3.1296,3.1302,3.1309,3.1129,3.1299,3.1299,3.1298,3.1298,3.1297,0,3.0971,3.0984,3.1031,3.1073,3.1112,3.1082,3.1113,3.1147,3.1201,3.1225,3.1264,3.1324,3.1371,3.1378,3.1422,3.1457,3.1445,3.1469,3.1466,3.1469,3.1332,3.1313,3.1478,3.1478,3.1478,3.1478,3.1478,3.1478,3.1068,3.1148,3.1145,3.1233,3.1245,3.1304,3.1324,3.1349,3.1368,3.1437,3.1475,3.148,3.1496,3.1541,3.1582,3.1582,3.16,3.1629,3.1624,3.1497,3.1479,3.1462,3.1443,3.1633,3.1633,3.1757,3.1758,3.1759]}]]